| time (UTC) | temp F | wind direction | speed knots | gust knots | rain 1hr in | rain 24hr in | rain mn in | humidity % | barometer mb |
| 20260504160349 | 64 | 129 | 0.0 | 0.9 | 0.00 | 0.00 | 0.00 | 53 | 1011.6 |
| 20260504150830 | 54 | 280 | 0.0 | 0.9 | 0.00 | 0.00 | 0.00 | 64 | 1012.1 |
| 20260504150319 | 54 | 297 | 0.0 | 0.9 | 0.00 | 0.00 | 0.00 | 65 | 1012.0 |
| 20260504141236 | 51 | 49 | 0.0 | 0.0 | 0.00 | 0.00 | 0.00 | 64 | 1011.9 |
| 20260504140724 | 51 | 49 | 0.0 | 0.0 | 0.00 | 0.00 | 0.00 | 62 | 1012.0 |
| 20260504140225 | 51 | 49 | 0.0 | 0.9 | 0.00 | 0.00 | 0.00 | 64 | 1011.9 |
| 20260504130640 | 50 | 91 | 0.0 | 0.9 | 0.00 | 0.00 | 0.00 | 61 | 1011.8 |
| 20260504130140 | 50 | 91 | 0.0 | 0.9 | 0.00 | 0.00 | 0.00 | 61 | 1011.6 |
| 20260504110533 | 51 | 75 | 0.9 | 1.7 | 0.00 | 0.00 | 0.00 | 60 | 1011.5 |
| 20260504100445 | 54 | 22 | 0.9 | 2.6 | 0.00 | 0.00 | 0.00 | 56 | 1011.5 |
| 20260504081848 | 59 | 332 | 0.9 | 1.7 | 0.00 | 0.00 | 0.00 | 48 | 1011.4 |
| 20260504081348 | 60 | 0 | 0.9 | 2.6 | 0.00 | 0.00 | 0.00 | 46 | 1011.3 |
| 20260504080348 | 60 | 337 | 1.7 | 3.5 | 0.00 | 0.00 | 0.00 | 46 | 1011.4 |
| 20260504070330 | 59 | 15 | 0.0 | 1.7 | 0.00 | 0.00 | 0.00 | 48 | 1011.2 |
| 20260504050736 | 63 | 46 | 1.7 | 1.7 | 0.00 | 0.00 | 0.00 | 42 | 1010.9 |
| 20260504050230 | 64 | 33 | 0.9 | 2.6 | 0.00 | 0.00 | 0.00 | 42 | 1010.9 |
| 20260504045730 | 65 | 17 | 0.9 | 2.6 | 0.00 | 0.00 | 0.00 | 41 | 1010.9 |
| 20260504045224 | 65 | 343 | 0.9 | 1.7 | 0.00 | 0.00 | 0.00 | 41 | 1010.9 |
| 20260504044720 | 65 | 39 | 0.9 | 1.7 | 0.00 | 0.00 | 0.00 | 40 | 1010.7 |
| 20260504044214 | 66 | 5 | 0.9 | 1.7 | 0.00 | 0.00 | 0.00 | 39 | 1010.8 |
| 20260504043708 | 66 | 60 | 0.0 | 0.9 | 0.00 | 0.00 | 0.00 | 38 | 1010.7 |
| 20260504043158 | 67 | 338 | 0.0 | 1.7 | 0.00 | 0.00 | 0.00 | 37 | 1010.7 |
| 20260504042656 | 68 | 0 | 0.9 | 2.6 | 0.00 | 0.00 | 0.00 | 36 | 1010.8 |
| 20260504041647 | 69 | 49 | 0.0 | 1.7 | 0.00 | 0.00 | 0.00 | 35 | 1010.6 |
| 20260504041147 | 69 | 321 | 0.0 | 1.7 | 0.00 | 0.00 | 0.00 | 34 | 1010.4 |
| 20260504040644 | 70 | 40 | 0.0 | 0.9 | 0.00 | 0.00 | 0.00 | 33 | 1010.4 |
| 20260504040136 | 69 | 68 | 0.0 | 1.7 | 0.00 | 0.00 | 0.00 | 33 | 1010.3 |
| 20260504034606 | 71 | 82 | 1.7 | 4.3 | 0.00 | 0.00 | 0.00 | 32 | 1010.4 |
| 20260504034107 | 72 | 140 | 0.9 | 3.5 | 0.00 | 0.00 | 0.00 | 30 | 1010.2 |
| 20260504033603 | 73 | 138 | 0.0 | 3.5 | 0.00 | 0.00 | 0.00 | 29 | 1010.1 |
| 20260504033045 | 73 | 324 | 0.9 | 2.6 | 0.00 | 0.00 | 0.00 | 29 | 1010.1 |
| 20260504032546 | 73 | 32 | 1.7 | 6.1 | 0.00 | 0.00 | 0.00 | 29 | 1010.0 |
| 20260504032040 | 74 | 34 | 1.7 | 7.0 | 0.00 | 0.00 | 0.00 | 28 | 1010.0 |
| 20260504031030 | 76 | 320 | 3.5 | 7.8 | 0.00 | 0.00 | 0.00 | 26 | 1009.9 |
| 20260504030526 | 75 | 332 | 3.5 | 6.1 | 0.00 | 0.00 | 0.00 | 26 | 1009.7 |
| 20260504025517 | 77 | 329 | 2.6 | 3.5 | 0.00 | 0.00 | 0.00 | 27 | 1009.8 |
| 20260504025013 | 77 | 311 | 0.9 | 4.3 | 0.00 | 0.00 | 0.00 | 27 | 1009.7 |
| 20260504024507 | 78 | 264 | 1.7 | 6.1 | 0.00 | 0.00 | 0.00 | 29 | 1009.7 |
| 20260504024001 | 78 | 297 | 3.5 | 6.1 | 0.00 | 0.00 | 0.00 | 28 | 1009.7 |
| 20260504023501 | 79 | 304 | 2.6 | 6.1 | 0.00 | 0.00 | 0.00 | 28 | 1009.6 |
| 20260504022955 | 80 | 309 | 2.6 | 6.1 | 0.00 | 0.00 | 0.00 | 27 | 1009.5 |
| 20260504022448 | 80 | 290 | 3.5 | 7.8 | 0.00 | 0.00 | 0.00 | 26 | 1009.6 |
| 20260504021949 | 80 | 322 | 2.6 | 7.8 | 0.00 | 0.00 | 0.00 | 26 | 1009.5 |
| 20260504021449 | 81 | 276 | 2.6 | 6.1 | 0.00 | 0.00 | 0.00 | 26 | 1009.5 |
| 20260504020951 | 81 | 288 | 2.6 | 6.1 | 0.00 | 0.00 | 0.00 | 26 | 1009.5 |
| 20260504020443 | 81 | 267 | 2.6 | 5.2 | 0.00 | 0.00 | 0.00 | 25 | 1009.6 |
| 20260504015944 | 82 | 259 | 3.5 | 6.1 | 0.00 | 0.00 | 0.00 | 24 | 1009.6 |
| 20260504015444 | 82 | 254 | 3.5 | 6.1 | 0.00 | 0.00 | 0.00 | 25 | 1009.6 |
| 20260504014939 | 82 | 259 | 3.5 | 6.1 | 0.00 | 0.00 | 0.00 | 25 | 1009.5 |
| 20260504014433 | 83 | 288 | 1.7 | 6.1 | 0.00 | 0.00 | 0.00 | 25 | 1009.6 |
| 20260504013933 | 83 | 297 | 3.5 | 9.6 | 0.00 | 0.00 | 0.00 | 24 | 1009.7 |
| 20260504013427 | 83 | 311 | 4.3 | 9.6 | 0.00 | 0.00 | 0.00 | 24 | 1009.6 |
| 20260504012921 | 83 | 265 | 3.5 | 7.8 | 0.00 | 0.00 | 0.00 | 23 | 1009.6 |
| 20260504012415 | 83 | 296 | 3.5 | 7.0 | 0.00 | 0.00 | 0.00 | 24 | 1009.7 |
| 20260504011915 | 83 | 302 | 3.5 | 7.8 | 0.00 | 0.00 | 0.00 | 23 | 1009.7 |
| 20260504011409 | 84 | 268 | 3.5 | 7.8 | 0.00 | 0.00 | 0.00 | 23 | 1009.6 |
| 20260504010903 | 84 | 259 | 3.5 | 9.6 | 0.00 | 0.00 | 0.00 | 23 | 1009.7 |
| 20260504010358 | 83 | 288 | 7.0 | 9.6 | 0.00 | 0.00 | 0.00 | 22 | 1009.7 |
| 20260504005858 | 84 | 314 | 5.2 | 12.2 | 0.00 | 0.00 | 0.00 | 22 | 1009.7 |
| 20260504004856 | 84 | 293 | 5.2 | 10.4 | 0.00 | 0.00 | 0.00 | 21 | 1009.9 |
| 20260504004356 | 85 | 291 | 3.5 | 7.8 | 0.00 | 0.00 | 0.00 | 22 | 1009.9 |
| 20260504003857 | 85 | 307 | 2.6 | 6.1 | 0.00 | 0.00 | 0.00 | 21 | 1010.0 |
| 20260504003350 | 84 | 316 | 1.7 | 7.0 | 0.00 | 0.00 | 0.00 | 24 | 1010.0 |
| 20260504001840 | 85 | 51 | 3.5 | 7.8 | 0.00 | 0.00 | 0.00 | 22 | 1010.2 |
| 20260504000840 | 84 | 238 | 1.7 | 7.0 | 0.00 | 0.00 | 0.00 | 23 | 1010.1 |
| 20260503235828 | 84 | 294 | 4.3 | 7.8 | 0.00 | 0.00 | 0.00 | 21 | 1010.2 |
| 20260503234823 | 84 | 297 | 3.5 | 12.2 | 0.00 | 0.00 | 0.00 | 23 | 1010.1 |
| 20260503233812 | 84 | 167 | 2.6 | 10.4 | 0.00 | 0.00 | 0.00 | 19 | 1010.2 |
| 20260503233306 | 83 | 221 | 4.3 | 11.3 | 0.00 | 0.00 | 0.00 | 20 | 1010.4 |
| 20260503232805 | 84 | 316 | 7.0 | 11.3 | 0.00 | 0.00 | 0.00 | 19 | 1010.3 |
| 20260503231754 | 84 | 269 | 1.7 | 5.2 | 0.00 | 0.00 | 0.00 | 23 | 1010.7 |
| 20260503231254 | 83 | 319 | 2.6 | 4.3 | 0.00 | 0.00 | 0.00 | 20 | 1010.6 |
| 20260503230243 | 83 | 262 | 2.6 | 9.6 | 0.00 | 0.00 | 0.00 | 21 | 1010.8 |
| 20260503225743 | 84 | 246 | 3.5 | 9.6 | 0.00 | 0.00 | 0.00 | 20 | 1010.8 |
| 20260503225243 | 83 | 309 | 2.6 | 7.8 | 0.00 | 0.00 | 0.00 | 21 | 1010.8 |
| 20260503224737 | 84 | 311 | 3.5 | 7.8 | 0.00 | 0.00 | 0.00 | 23 | 1011.0 |
| 20260503224238 | 84 | 262 | 3.5 | 12.2 | 0.00 | 0.00 | 0.00 | 19 | 1011.2 |
| 20260503223738 | 84 | 290 | 7.8 | 12.2 | 0.00 | 0.00 | 0.00 | 21 | 1011.1 |
| 20260503223232 | 83 | 188 | 1.7 | 6.1 | 0.00 | 0.00 | 0.00 | 24 | 1011.3 |
| 20260503222731 | 83 | 169 | 4.3 | 7.8 | 0.00 | 0.00 | 0.00 | 21 | 1011.4 |
| 20260503222227 | 84 | 262 | 5.2 | 7.8 | 0.00 | 0.00 | 0.00 | 22 | 1011.6 |
| 20260503221727 | 83 | 298 | 0.9 | 7.0 | 0.00 | 0.00 | 0.00 | 22 | 1011.5 |
| 20260503220716 | 83 | 302 | 1.7 | 7.8 | 0.00 | 0.00 | 0.00 | 22 | 1011.6 |
| 20260503220211 | 83 | 263 | 3.5 | 4.3 | 0.00 | 0.00 | 0.00 | 21 | 1011.7 |
| 20260503215706 | 83 | 356 | 0.9 | 6.1 | 0.00 | 0.00 | 0.00 | 22 | 1011.6 |
| 20260503215206 | 83 | 26 | 3.5 | 7.0 | 0.00 | 0.00 | 0.00 | 22 | 1011.8 |
| 20260503214700 | 82 | 310 | 4.3 | 7.0 | 0.00 | 0.00 | 0.00 | 21 | 1012.0 |
| 20260503214200 | 83 | 248 | 1.7 | 9.6 | 0.00 | 0.00 | 0.00 | 21 | 1012.0 |
| 20260503213154 | 83 | 52 | 0.9 | 3.5 | 0.00 | 0.00 | 0.00 | 20 | 1012.0 |
| 20260503212655 | 83 | 328 | 0.9 | 5.2 | 0.00 | 0.00 | 0.00 | 23 | 1012.1 |
| 20260503211649 | 82 | 226 | 1.7 | 7.8 | 0.00 | 0.00 | 0.00 | 21 | 1012.3 |
| 20260503211144 | 82 | 270 | 4.3 | 7.8 | 0.00 | 0.00 | 0.00 | 21 | 1012.5 |
| 20260503205633 | 81 | 289 | 1.7 | 9.6 | 0.00 | 0.00 | 0.00 | 23 | 1012.5 |
| 20260503204629 | 82 | 323 | 1.7 | 3.5 | 0.00 | 0.00 | 0.00 | 22 | 1012.9 |
| 20260503204125 | 82 | 307 | 0.9 | 3.5 | 0.00 | 0.00 | 0.00 | 22 | 1012.9 |
| 20260503203622 | 81 | 116 | 1.7 | 5.2 | 0.00 | 0.00 | 0.00 | 25 | 1012.9 |
| 20260503203115 | 80 | 92 | 0.9 | 7.8 | 0.00 | 0.00 | 0.00 | 22 | 1013.0 |
| 20260503202611 | 80 | 338 | 4.3 | 7.8 | 0.00 | 0.00 | 0.00 | 23 | 1013.1 |
| 20260503202105 | 80 | 300 | 3.5 | 7.0 | 0.00 | 0.00 | 0.00 | 25 | 1013.2 |
| 20260503201600 | 80 | 310 | 2.6 | 4.3 | 0.00 | 0.00 | 0.00 | 24 | 1013.3 |
| 20260503201101 | 80 | 165 | 1.7 | 7.8 | 0.00 | 0.00 | 0.00 | 24 | 1013.4 |
| 20260503200556 | 80 | 302 | 3.5 | 7.8 | 0.00 | 0.00 | 0.00 | 24 | 1013.4 |
| 20260503195546 | 80 | 299 | 1.7 | 7.0 | 0.00 | 0.00 | 0.00 | 27 | 1013.6 |
| 20260503195042 | 79 | 221 | 2.6 | 7.8 | 0.00 | 0.00 | 0.00 | 24 | 1013.6 |
| 20260503194537 | 79 | 288 | 3.5 | 7.8 | 0.00 | 0.00 | 0.00 | 24 | 1013.7 |
| 20260503194032 | 79 | 319 | 3.5 | 7.0 | 0.00 | 0.00 | 0.00 | 25 | 1014.0 |
| 20260503193527 | 79 | 326 | 3.5 | 6.1 | 0.00 | 0.00 | 0.00 | 26 | 1014.0 |
| 20260503193023 | 79 | 240 | 3.5 | 7.0 | 0.00 | 0.00 | 0.00 | 25 | 1014.1 |
| 20260503192518 | 79 | 328 | 3.5 | 7.0 | 0.00 | 0.00 | 0.00 | 25 | 1014.1 |
| 20260503192013 | 79 | 266 | 1.7 | 7.0 | 0.00 | 0.00 | 0.00 | 27 | 1014.2 |
| 20260503191508 | 78 | 258 | 3.5 | 5.2 | 0.00 | 0.00 | 0.00 | 27 | 1014.3 |
| 20260503191002 | 78 | 252 | 0.9 | 4.3 | 0.00 | 0.00 | 0.00 | 30 | 1014.2 |
| 20260503190456 | 77 | 148 | 0.9 | 4.3 | 0.00 | 0.00 | 0.00 | 31 | 1014.3 |
| 20260503185951 | 76 | 169 | 2.6 | 4.3 | 0.00 | 0.00 | 0.00 | 31 | 1014.6 |
| 20260503185445 | 76 | 114 | 0.9 | 4.3 | 0.00 | 0.00 | 0.00 | 35 | 1014.5 |
| 20260503184946 | 76 | 186 | 1.7 | 3.5 | 0.00 | 0.00 | 0.00 | 32 | 1014.6 |
| 20260503184441 | 75 | 105 | 1.7 | 2.6 | 0.00 | 0.00 | 0.00 | 34 | 1014.7 |
| 20260503183935 | 74 | 285 | 0.9 | 4.3 | 0.00 | 0.00 | 0.00 | 34 | 1014.7 |
| 20260503183436 | 74 | 295 | 1.7 | 4.3 | 0.00 | 0.00 | 0.00 | 35 | 1014.8 |
| 20260503182930 | 74 | 323 | 0.9 | 2.6 | 0.00 | 0.00 | 0.00 | 33 | 1014.9 |
| 20260503182424 | 73 | 144 | 0.9 | 2.6 | 0.00 | 0.00 | 0.00 | 38 | 1014.9 |
| 20260503181923 | 73 | 187 | 1.7 | 3.5 | 0.00 | 0.00 | 0.00 | 33 | 1015.0 |
| 20260503181419 | 72 | 238 | 1.7 | 3.5 | 0.00 | 0.00 | 0.00 | 36 | 1015.1 |
| 20260503180418 | 72 | 197 | 1.7 | 2.6 | 0.00 | 0.00 | 0.00 | 40 | 1015.2 |
| 20260503175917 | 71 | 264 | 0.9 | 2.6 | 0.00 | 0.00 | 0.00 | 38 | 1015.2 |
| 20260503175412 | 70 | 241 | 0.9 | 2.6 | 0.00 | 0.00 | 0.00 | 38 | 1015.3 |
| 20260503174913 | 70 | 248 | 1.7 | 2.6 | 0.00 | 0.00 | 0.00 | 38 | 1015.3 |
| 20260503174407 | 69 | 248 | 0.0 | 1.7 | 0.00 | 0.00 | 0.00 | 38 | 1015.4 |
| 20260503173901 | 69 | 253 | 0.0 | 1.7 | 0.00 | 0.00 | 0.00 | 39 | 1015.6 |
| 20260503173401 | 68 | 304 | 0.0 | 1.7 | 0.00 | 0.00 | 0.00 | 40 | 1015.7 |
| 20260503172856 | 67 | 120 | 0.9 | 1.7 | 0.00 | 0.00 | 0.00 | 40 | 1015.8 |
| 20260503172351 | 67 | 240 | 0.9 | 2.6 | 0.00 | 0.00 | 0.00 | 41 | 1015.9 |
| 20260503171340 | 66 | 190 | 0.0 | 2.6 | 0.00 | 0.00 | 0.00 | 41 | 1016.0 |
| 20260503170840 | 66 | 295 | 0.9 | 1.7 | 0.00 | 0.00 | 0.00 | 40 | 1016.1 |
| 20260503170335 | 66 | 281 | 0.9 | 1.7 | 0.00 | 0.00 | 0.00 | 44 | 1016.1 |